Location: ?????
(55.6500°N, 37.2500°E)
Time: 13:38:59
(UTC+00:00)

Cosmos 44 Rocket - Pass Details

Date: 19 May 2025
Orbit: 651 x 728 km, 65.1° (Epoch: 21 June)

Event Time Altitude Azimuth Distance (km) Brightness Sun altitude
Rises 22:57:54 0° 311° (NW) 3,018 6.9 -12.0°
Reaches altitude 10° 23:00:15 10° 306° (NW) 2,112 6.0 -11.9°
Maximum altitude 23:04:51 48° 233° (SW) 894 3.5 -11.6°
Drops below altitude 10° 23:09:32 10° 160° (SSE) 2,147 5.4 -11.3°
Enters shadow 23:11:03 - 156° (SSE) 2,725 6.0 -11.2°
